This is the latest recevied weather packets stored in our database for station/object EA6AMI-5. If no packets are shown the sender has not sent any weather packets the latest 10 day(s).
| Time | Temp. | Humidity | Pressure | Rain* | Wind** | Luminosity | Snow |
|---|---|---|---|---|---|---|---|
| 1787754423 | 32.78° C | 42% | 1011.9 hPa | 0 mm | - | 351 W/m² | - |
| 1787753884 | 32.78° C | 40% | 1012.5 hPa | 0 mm | - | 415 W/m² | - |
| 1787753343 | 33.33° C | 40% | 1012.4 hPa | 0 mm | - | 98 W/m² | - |
| 1787752803 | 33.33° C | 41% | 1013.2 hPa | 0 mm | - | 215 W/m² | - |
| 1787752444 | 32.78° C | 42% | 1013.3 hPa | 0 mm | - | 515 W/m² | - |
| 1787751903 | 33.33° C | 41% | 1012.8 hPa | 0 mm | - | 275 W/m² | - |
| 1787751363 | 33.89° C | 40% | 1012.7 hPa | 0 mm | - | 205 W/m² | - |
| 1787750824 | 33.89° C | 39% | 1012.7 hPa | 0 mm | - | 479 W/m² | - |
| 1787750283 | 33.33° C | 37% | 1012.4 hPa | 0 mm | - | 532 W/m² | - |
| 1787749744 | 33.89° C | 37% | 1012.9 hPa | 0 mm | - | 534 W/m² | - |
| 1787749203 | 33.89° C | 37% | 1012.7 hPa | 0 mm | - | 562 W/m² | - |
| 1787748844 | 33.33° C | 36% | 1012.8 hPa | 0 mm | - | 531 W/m² | - |
| 1787748304 | 33.33° C | 36% | 1012.6 hPa | 0 mm | - | 546 W/m² | - |
| 1787747764 | 33.33° C | 36% | 1012.9 hPa | 0 mm | - | 583 W/m² | - |
| 1787747224 | 33.89° C | 36% | 1012.9 hPa | 0 mm | - | 582 W/m² | - |
| 1787746683 | 33.33° C | 33% | 1013.2 hPa | 0 mm | - | 590 W/m² | - |
| 1787746143 | 33.33° C | 31% | 1013.1 hPa | 0 mm | - | 583 W/m² | - |
| 1787745604 | 32.78° C | 31% | 1013.3 hPa | 0 mm | - | 596 W/m² | - |
| 1787745244 | 33.33° C | 30% | 1013.3 hPa | 0 mm | - | 377 W/m² | - |
| 1787744703 | 33.33° C | 30% | 1013 hPa | 0 mm | - | 569 W/m² | - |
| 1787744163 | 33.33° C | 31% | 1013.6 hPa | 0 mm | - | 566 W/m² | - |
| 1787743623 | 33.33° C | 31% | 1013.9 hPa | 0 mm | - | 576 W/m² | - |
| 1787743083 | 33.33° C | 31% | 1014.2 hPa | 0 mm | - | 587 W/m² | - |
| 1787742544 | 32.22° C | 33% | 1014.4 hPa | 0 mm | - | 571 W/m² | - |
| 1787742004 | 31.67° C | 33% | 1014.9 hPa | 0 mm | - | 577 W/m² | - |
* Rain latest hour (hover to see other rain measurements)
** Current wind speed in m/s (hover to see current wind gust speed)